Weather in Dabuzha

Russia / Kaluga Oblast     54°13′32″N   34°49′15″E
temp.,
°C
wind,
m/s
gust,
m/s
humid.,
%
clouds,
%
prec.,
mm/h
press.,
hPa
HPBL,
m
12 may, wed
wed1200:00+12se410915 0.0 1024530
03:00+8se38960 0.0 1025206
06:00+6se24890 0.0 1026109
09:00+12ese346418 0.0 1025630
12:00+14e455398 0.0 10231309
15:00+10ene4688100 0.4 1021346
18:00+9s2397100 4.0 1018204
21:00+8se479699 4.6 1017398
13 may, thu
thu1300:00+6ese399715 0.0 1018228
03:00+6e5139649 0.0 1017335
06:00+7ese5129588 0.4 1016580
09:00+11se698680 0.6 1016791
12:00+14sse7965100 0.6 10151625
15:00+13se5771100 0.8 10141032
18:00+13ssw466898 0.3 1013933
21:00+8s3689100 0.3 101590
14 may, fri
fri1400:00+6s23923 0.0 101544
03:00+6sse35931 0.0 101676
06:00+7ese379285 0.0 1016163
09:00+13se4776100 0.0 1015422
12:00+16ese5772100 0.0 1014593
15:00+19ese597692 0.7 10121033
18:00+18sse61181100 7.5 1009367
21:00+15sse369141 8.5 100993
15 may, sat
sat1500:00+13sse3596100 0.1 100983
03:00+12s2295100 0.1 100928
06:00+12se249722 0.1 1009106
09:00+17sse4587100 0.1 1008476
12:00+20s576811 2.5 10081226
15:00+20ssw68650 4.2 10071431
18:00+17ssw69814 1.2 1008991
21:00+13sw5119412 1.3 1010483
16 may, sun
sun1600:00+11sw389856 0.0 1011274
03:00+10sw379820 0.0 1012166
06:00+10sw269682 0.0 1014184
09:00+14wsw347889 0.0 1015604
12:00+18w33607 0.0 10151253
15:00+20w225391 0.0 10151357
18:00+19ese1258100 0.0 1015798
21:00+14ene337722 0.0 101632